Location: *
(49.6619°S, 177.4603°W)
Time: 05:50:00
(UTC+00:00)

Cosmos 2263 Rocket - Pass Details

Date: 31 January 2023
Orbit: 824 x 847 km, 71.0° (Epoch: 01 April)

Event Time Altitude Azimuth Distance (km) Brightness Sun altitude
Rises 08:17:31 0° 343° (NNW) 3,377 5.1 -6.5°
Reaches altitude 10° 08:19:57 10° 345° (NNW) 2,454 4.4 -6.8°
Maximum altitude 08:25:32 67° 66° (ENE) 921 2.2 -7.5°
Drops below altitude 10° 08:31:13 10° 147° (SSE) 2,498 4.7 -8.3°
Sets 08:33:42 0° 149° (SSE) 3,442 5.5 -8.6°
